FredonyerEastRWIS Atmospheric Data: 12/06/2018 Summary  Detailed Graphs  Station List

  Temperature     Wind Precipitation Visibility
Timestamp Air Wet
Bulb
Dew-
point
24-hr
Max
24-hr
Min
Relative
Humidity
Atmospheric
Pressure
Avg
Speed
Avg
Dir
Spot
Speed
Spot
Dir
Max
Speed
Max
Dir
  Rate Situation Start End 1 hr 3 hr 6 hr 12 hr 24 hr   Situation
Date Time °F °F °F °F °F % in Hg mph ° mph ° mph ° Y/N in/hr text Date Time Date Time in in in in in mi text
12/06/2018 12:08 AM 25.88 25.70 25.16 29.30 24.98 97.0 Not Reported 0.22 NE 0.00 NE 2.46 NE No 0.000 No Precipitation 12/05/2018 08:37 AM 12/05/2018 08:42 AM 0.000 0.000 0.000 0.000 0.071 Not Reported Not Reported
12/06/2018 12:23 AM 25.88 25.70 25.16 29.30 24.98 97.0 Not Reported 1.57 NE 2.68 E 3.36 NE No 0.000 No Precipitation 12/05/2018 08:37 AM 12/05/2018 08:42 AM 0.000 0.000 0.000 0.000 0.071 Not Reported Not Reported
12/06/2018 12:38 AM 25.88 25.70 25.16 29.30 24.98 97.0 Not Reported 2.01 NE 1.79 NW 3.36 E No 0.000 No Precipitation 12/05/2018 08:37 AM 12/05/2018 08:42 AM 0.000 0.000 0.000 0.000 0.071 Not Reported Not Reported
12/06/2018 12:53 AM 25.88 25.52 25.16 29.30 24.98 97.0 Not Reported 1.12 N 0.89 E 2.24 NE No 0.000 No Precipitation 12/05/2018 08:37 AM 12/05/2018 08:42 AM 0.000 0.000 0.000 0.000 0.071 Not Reported Not Reported
12/06/2018 01:08 AM 25.70 25.52 24.98 29.30 24.98 97.0 Not Reported 2.01 N 0.89 NE 2.46 N No 0.000 No Precipitation 12/05/2018 08:37 AM 12/05/2018 08:42 AM 0.000 0.000 0.000 0.000 0.071 Not Reported Not Reported
12/06/2018 01:23 AM 25.70 25.34 24.98 29.30 24.98 97.0 Not Reported 1.12 NW 1.34 N 1.34 E No 0.000 No Precipitation 12/05/2018 08:37 AM 12/05/2018 08:42 AM 0.000 0.000 0.000 0.000 0.071 Not Reported Not Reported
12/06/2018 01:38 AM 25.70 25.52 25.16 29.30 24.98 97.0 Not Reported 0.67 N 0.89 NW 2.46 NE No 0.000 No Precipitation 12/05/2018 08:37 AM 12/05/2018 08:42 AM 0.000 0.000 0.000 0.000 0.071 Not Reported Not Reported
12/06/2018 01:53 AM 25.70 25.52 25.34 29.30 24.98 98.0 Not Reported 2.01 N 0.00 NE 5.14 NE No 0.000 No Precipitation 12/05/2018 08:37 AM 12/05/2018 08:42 AM 0.000 0.000 0.000 0.000 0.071 Not Reported Not Reported
12/06/2018 02:08 AM 25.88 25.70 25.34 29.30 24.98 98.0 Not Reported 0.45 NE 2.24 SE 4.25 N No 0.000 No Precipitation 12/05/2018 08:37 AM 12/05/2018 08:42 AM 0.000 0.000 0.000 0.000 0.071 Not Reported Not Reported
12/06/2018 02:23 AM 25.70 25.52 25.34 29.30 24.98 98.0 Not Reported 0.22 NW 1.34 N 2.68 NE No 0.000 No Precipitation 12/05/2018 08:37 AM 12/05/2018 08:42 AM 0.000 0.000 0.000 0.000 0.067 Not Reported Not Reported
12/06/2018 02:38 AM 25.70 25.52 25.16 29.30 24.98 97.0 Not Reported 1.57 NE 1.34 N 2.46 N No 0.000 No Precipitation 12/05/2018 08:37 AM 12/05/2018 08:42 AM 0.000 0.000 0.000 0.000 0.067 Not Reported Not Reported
12/06/2018 02:53 AM 25.52 25.34 24.98 29.30 24.98 97.0 Not Reported 2.46 NE 2.68 NW 2.91 NE No 0.000 No Precipitation 12/05/2018 08:37 AM 12/05/2018 08:42 AM 0.000 0.000 0.000 0.000 0.067 Not Reported Not Reported
12/06/2018 03:08 AM 25.70 25.52 24.98 29.30 24.98 97.0 Not Reported 2.01 NE 1.79 NW 4.70 NE No 0.000 No Precipitation 12/05/2018 08:37 AM 12/05/2018 08:42 AM 0.000 0.000 0.000 0.000 0.067 Not Reported Not Reported
12/06/2018 03:23 AM 25.70 25.52 25.16 29.30 24.98 97.0 Not Reported 0.67 N 0.89 SW 3.36 NW No 0.000 No Precipitation 12/05/2018 08:37 AM 12/05/2018 08:42 AM 0.000 0.000 0.000 0.000 0.063 Not Reported Not Reported
12/06/2018 03:38 AM 25.52 25.34 24.98 29.30 24.98 97.0 Not Reported 1.79 NE 1.34 N 3.13 NE No 0.000 No Precipitation 12/05/2018 08:37 AM 12/05/2018 08:42 AM 0.000 0.000 0.000 0.000 0.059 Not Reported Not Reported
12/06/2018 03:53 AM 25.70 25.52 24.98 29.30 24.98 97.0 Not Reported 0.89 NE 1.79 NE 3.58 NE No 0.000 No Precipitation 12/05/2018 08:37 AM 12/05/2018 08:42 AM 0.000 0.000 0.000 0.000 0.059 Not Reported Not Reported
12/06/2018 04:08 AM 25.70 25.52 24.98 29.30 24.98 97.0 Not Reported 2.24 N 0.67 N 1.79 NE No 0.000 No Precipitation 12/05/2018 08:37 AM 12/05/2018 08:42 AM 0.000 0.000 0.000 0.000 0.055 Not Reported Not Reported
12/06/2018 04:23 AM 25.70 25.52 24.98 29.30 24.98 97.0 Not Reported 1.57 NE 1.79 NW 2.46 N No 0.000 No Precipitation 12/05/2018 08:37 AM 12/05/2018 08:42 AM 0.000 0.000 0.000 0.000 0.043 Not Reported Not Reported
12/06/2018 04:38 AM 25.70 25.52 25.16 29.30 24.98 97.0 Not Reported 1.57 W 1.34 W 3.13 NE No 0.000 No Precipitation 12/05/2018 08:37 AM 12/05/2018 08:42 AM 0.000 0.000 0.000 0.000 0.039 Not Reported Not Reported
12/06/2018 04:53 AM 25.70 25.34 24.98 29.30 24.98 96.0 Not Reported 2.24 NW 1.12 NE 2.91 NE No 0.000 No Precipitation 12/05/2018 08:37 AM 12/05/2018 08:42 AM 0.000 0.000 0.000 0.000 0.039 Not Reported Not Reported
12/06/2018 05:08 AM 25.70 25.34 24.98 29.30 24.98 97.0 Not Reported 0.89 NE 1.12 N 3.58 N No 0.000 No Precipitation 12/05/2018 08:37 AM 12/05/2018 08:42 AM 0.000 0.000 0.000 0.000 0.031 Not Reported Not Reported
12/06/2018 05:23 AM 25.70 25.34 24.98 29.30 24.98 97.0 Not Reported 0.00 W 0.89 N 2.24 NE No 0.000 No Precipitation 12/05/2018 08:37 AM 12/05/2018 08:42 AM 0.000 0.000 0.000 0.000 0.028 Not Reported Not Reported
12/06/2018 05:38 AM 25.52 25.34 24.98 29.30 24.98 97.0 Not Reported 0.67 N 0.45 NE 4.03 NE No 0.000 No Precipitation 12/05/2018 08:37 AM 12/05/2018 08:42 AM 0.000 0.000 0.000 0.000 0.028 Not Reported Not Reported
12/06/2018 05:53 AM 25.52 25.34 24.98 29.30 24.98 97.0 Not Reported 2.01 SE 2.46 NE 3.13 E No 0.000 No Precipitation 12/05/2018 08:37 AM 12/05/2018 08:42 AM 0.000 0.000 0.000 0.000 0.028 Not Reported Not Reported
12/06/2018 06:08 AM 25.52 25.34 24.98 29.30 24.98 97.0 Not Reported 1.34 NE 0.22 E 3.80 N No 0.000 No Precipitation 12/05/2018 08:37 AM 12/05/2018 08:42 AM 0.000 0.000 0.000 0.000 0.028 Not Reported Not Reported
12/06/2018 06:23 AM 25.52 25.34 24.98 29.30 24.98 97.0 Not Reported 1.12 NE 3.13 NE 4.47 NE No 0.000 No Precipitation 12/05/2018 08:37 AM 12/05/2018 08:42 AM 0.000 0.000 0.000 0.000 0.020 Not Reported Not Reported
12/06/2018 06:38 AM 25.52 25.34 24.98 29.30 25.16 97.0 Not Reported 1.57 N 0.89 NW 3.13 NE No 0.000 No Precipitation 12/05/2018 08:37 AM 12/05/2018 08:42 AM 0.000 0.000 0.000 0.000 0.020 Not Reported Not Reported
12/06/2018 06:53 AM 25.34 25.16 24.80 29.30 25.16 97.0 Not Reported 2.91 NE 2.68 N 4.70 NE No 0.000 No Precipitation 12/05/2018 08:37 AM 12/05/2018 08:42 AM 0.000 0.000 0.000 0.000 0.020 Not Reported Not Reported
12/06/2018 07:08 AM 25.52 25.34 24.98 29.30 25.34 97.0 Not Reported 0.89 NW 0.89 W 3.58 NE No 0.000 No Precipitation 12/05/2018 08:37 AM 12/05/2018 08:42 AM 0.000 0.000 0.000 0.000 0.020 Not Reported Not Reported
12/06/2018 07:23 AM 25.52 25.34 24.80 29.30 25.34 97.0 Not Reported 1.34 E 0.89 E 2.46 SE No 0.000 No Precipitation 12/05/2018 08:37 AM 12/05/2018 08:42 AM 0.000 0.000 0.000 0.000 0.016 Not Reported Not Reported
12/06/2018 07:38 AM 25.70 25.34 24.80 29.30 25.34 96.0 Not Reported 1.34 SE 1.12 SE 2.91 NE No 0.000 No Precipitation 12/05/2018 08:37 AM 12/05/2018 08:42 AM 0.000 0.000 0.000 0.000 0.008 Not Reported Not Reported
12/06/2018 07:53 AM 25.52 25.34 24.80 29.30 25.34 96.0 Not Reported 0.89 NE 0.89 W 3.36 NE No 0.000 No Precipitation 12/05/2018 08:37 AM 12/05/2018 08:42 AM 0.000 0.000 0.000 0.000 0.008 Not Reported Not Reported
12/06/2018 08:08 AM 25.70 25.52 24.98 29.30 25.34 96.0 Not Reported 1.34 N 2.46 NW 3.13 NW No 0.000 No Precipitation 12/05/2018 08:37 AM 12/05/2018 08:42 AM 0.000 0.000 0.000 0.000 0.008 Not Reported Not Reported
12/06/2018 08:23 AM 25.70 25.34 24.98 29.30 25.34 97.0 Not Reported 1.34 W 1.12 E 3.80 NE No 0.000 No Precipitation 12/05/2018 08:37 AM 12/05/2018 08:42 AM 0.000 0.000 0.000 0.000 0.004 Not Reported Not Reported
12/06/2018 08:38 AM 25.52 25.34 24.80 29.30 25.34 96.0 Not Reported 1.12 E 2.01 E 3.58 N No 0.000 No Precipitation 12/05/2018 08:37 AM 12/05/2018 08:42 AM 0.000 0.000 0.000 0.000 0.000 Not Reported Not Reported
12/06/2018 08:53 AM 25.70 25.34 24.80 29.30 25.34 96.0 Not Reported 1.34 NE 1.79 NE 4.25 N No 0.000 No Precipitation 12/05/2018 08:37 AM 12/05/2018 08:42 AM 0.000 0.000 0.000 0.000 0.000 Not Reported Not Reported
12/06/2018 09:08 AM 25.70 25.52 24.80 29.30 25.34 96.0 Not Reported 3.36 N 2.91 N 3.80 NE No 0.000 No Precipitation 12/05/2018 08:37 AM 12/05/2018 08:42 AM 0.000 0.000 0.000 0.000 0.000 Not Reported Not Reported
12/06/2018 09:23 AM 25.88 25.52 24.98 29.30 25.34 96.0 Not Reported 2.24 SE 0.67 E 3.80 N No 0.000 No Precipitation 12/05/2018 08:37 AM 12/05/2018 08:42 AM 0.000 0.000 0.000 0.000 0.000 Not Reported Not Reported
12/06/2018 09:38 AM 26.06 25.70 25.16 29.30 25.34 96.0 Not Reported 0.89 SE 0.22 NE 3.58 SE No 0.000 No Precipitation 12/05/2018 08:37 AM 12/05/2018 08:42 AM 0.000 0.000 0.000 0.000 0.000 Not Reported Not Reported
12/06/2018 09:53 AM 26.24 25.88 25.16 29.30 25.34 95.0 Not Reported 2.24 NE 2.24 N 3.36 E No 0.000 No Precipitation 12/05/2018 08:37 AM 12/05/2018 08:42 AM 0.000 0.000 0.000 0.000 0.000 Not Reported Not Reported
12/06/2018 10:08 AM 26.42 26.06 25.34 29.30 25.34 95.0 Not Reported 0.67 NE 2.68 NE 4.47 E No 0.000 No Precipitation 12/05/2018 08:37 AM 12/05/2018 08:42 AM 0.000 0.000 0.000 0.000 0.000 Not Reported Not Reported
12/06/2018 10:23 AM 26.42 25.88 25.16 29.30 25.34 94.0 Not Reported 0.67 S 2.24 NE 2.68 SE No 0.000 No Precipitation 12/05/2018 08:37 AM 12/05/2018 08:42 AM 0.000 0.000 0.000 0.000 0.000 Not Reported Not Reported
12/06/2018 10:38 AM 26.42 26.06 25.34 29.30 25.34 95.0 Not Reported 1.57 NE 0.00 SW 4.03 NE No 0.000 No Precipitation 12/05/2018 08:37 AM 12/05/2018 08:42 AM 0.000 0.000 0.000 0.000 0.000 Not Reported Not Reported
12/06/2018 10:53 AM 26.78 26.42 25.70 29.30 25.34 95.0 Not Reported 0.89 W 2.01 SW 3.36 SE No 0.000 No Precipitation 12/05/2018 08:37 AM 12/05/2018 08:42 AM 0.000 0.000 0.000 0.000 0.000 Not Reported Not Reported
12/06/2018 11:08 AM 26.60 26.06 25.34 29.12 25.34 95.0 Not Reported 2.46 N 3.36 S 3.58 NE No 0.000 No Precipitation 12/05/2018 08:37 AM 12/05/2018 08:42 AM 0.000 0.000 0.000 0.000 0.000 Not Reported Not Reported
12/06/2018 11:23 AM 26.42 26.06 25.16 29.12 25.34 94.0 Not Reported 2.24 NE 1.79 NE 4.25 N No 0.000 No Precipitation 12/05/2018 08:37 AM 12/05/2018 08:42 AM 0.000 0.000 0.000 0.000 0.000 Not Reported Not Reported
12/06/2018 11:38 AM 26.60 26.24 25.34 28.94 25.34 94.0 Not Reported 0.89 N 0.89 E 5.14 SE No 0.000 No Precipitation 12/05/2018 08:37 AM 12/05/2018 08:42 AM 0.000 0.000 0.000 0.000 0.000 Not Reported Not Reported
12/06/2018 11:53 AM 26.60 26.06 25.16 28.76 25.34 94.0 Not Reported 2.01 N 2.46 NW 5.14 E No 0.000 No Precipitation 12/05/2018 08:37 AM 12/05/2018 08:42 AM 0.000 0.000 0.000 0.000 0.000 Not Reported Not Reported
12/06/2018 12:08 PM 26.78 26.24 25.16 28.40 25.34 93.0 Not Reported 2.01 E 0.00 NE 5.82 NE No 0.000 No Precipitation 12/05/2018 08:37 AM 12/05/2018 08:42 AM 0.000 0.000 0.000 0.000 0.000 Not Reported Not Reported
12/06/2018 12:23 PM 26.96 26.42 25.16 28.40 25.34 93.0 Not Reported 2.91 E 0.89 NE 3.58 E No 0.000 No Precipitation 12/05/2018 08:37 AM 12/05/2018 08:42 AM 0.000 0.000 0.000 0.000 0.000 Not Reported Not Reported
12/06/2018 12:38 PM 27.14 26.42 25.16 28.40 25.34 92.0 Not Reported 1.79 E 3.80 E 4.25 SE No 0.000 No Precipitation 12/05/2018 08:37 AM 12/05/2018 08:42 AM 0.000 0.000 0.000 0.000 0.000 Not Reported Not Reported
12/06/2018 12:53 PM 26.96 26.24 24.98 28.40 25.34 92.0 Not Reported 2.46 E 2.24 N 4.47 SE No 0.000 No Precipitation 12/05/2018 08:37 AM 12/05/2018 08:42 AM 0.000 0.000 0.000 0.000 0.000 Not Reported Not Reported
12/06/2018 01:08 PM 26.78 26.24 24.98 28.40 25.34 92.0 Not Reported 1.79 N 0.00 N 4.03 N No 0.000 No Precipitation 12/05/2018 08:37 AM 12/05/2018 08:42 AM 0.000 0.000 0.000 0.000 0.000 Not Reported Not Reported
12/06/2018 01:23 PM 26.96 26.24 25.16 28.40 25.34 92.0 Not Reported 0.67 E 2.91 E 4.70 NE No 0.000 No Precipitation 12/05/2018 08:37 AM 12/05/2018 08:42 AM 0.000 0.000 0.000 0.000 0.000 Not Reported Not Reported
12/06/2018 01:38 PM 26.96 26.24 25.16 28.40 25.34 92.0 Not Reported 0.67 NW 1.79 W 3.80 SE No 0.000 No Precipitation 12/05/2018 08:37 AM 12/05/2018 08:42 AM 0.000 0.000 0.000 0.000 0.000 Not Reported Not Reported
12/06/2018 01:53 PM 26.78 26.24 24.98 28.40 25.34 92.0 Not Reported 0.67 N 0.45 N 4.03 NE No 0.000 No Precipitation 12/05/2018 08:37 AM 12/05/2018 08:42 AM 0.000 0.000 0.000 0.000 0.000 Not Reported Not Reported
12/06/2018 02:08 PM 26.78 26.24 24.98 28.40 25.34 93.0 Not Reported 1.12 NE 1.57 N 4.25 W No 0.000 No Precipitation 12/05/2018 08:37 AM 12/05/2018 08:42 AM 0.000 0.000 0.000 0.000 0.000 Not Reported Not Reported
12/06/2018 02:23 PM 26.96 26.42 25.16 28.40 25.34 93.0 Not Reported 0.89 NE 0.22 N 2.46 NW No 0.000 No Precipitation 12/05/2018 08:37 AM 12/05/2018 08:42 AM 0.000 0.000 0.000 0.000 0.000 Not Reported Not Reported
12/06/2018 02:38 PM 26.78 26.06 24.80 28.40 25.34 92.0 Not Reported 1.57 N 2.91 NE 3.80 E No 0.000 No Precipitation 12/05/2018 08:37 AM 12/05/2018 08:42 AM 0.000 0.000 0.000 0.000 0.000 Not Reported Not Reported
12/06/2018 02:53 PM 26.78 26.06 24.98 28.22 25.34 93.0 Not Reported 0.67 SE 1.34 SE 3.80 N No 0.000 No Precipitation 12/05/2018 08:37 AM 12/05/2018 08:42 AM 0.000 0.000 0.000 0.000 0.000 Not Reported Not Reported
12/06/2018 03:08 PM 26.60 26.06 24.98 28.22 25.34 93.0 Not Reported 0.89 N 1.34 E 2.24 N No 0.000 No Precipitation 12/05/2018 08:37 AM 12/05/2018 08:42 AM 0.000 0.000 0.000 0.000 0.000 Not Reported Not Reported
12/06/2018 03:23 PM 26.60 26.06 24.80 28.04 25.34 93.0 Not Reported 0.45 E 4.25 SE 4.47 SE No 0.000 No Precipitation 12/05/2018 08:37 AM 12/05/2018 08:42 AM 0.000 0.000 0.000 0.000 0.000 Not Reported Not Reported
12/06/2018 03:38 PM 26.42 25.88 24.98 28.04 25.34 94.0 Not Reported 1.79 S 1.79 SE 4.25 SE No 0.000 No Precipitation 12/05/2018 08:37 AM 12/05/2018 08:42 AM 0.000 0.000 0.000 0.000 0.000 Not Reported Not Reported
12/06/2018 03:53 PM 26.24 25.88 24.98 27.68 25.34 94.0 Not Reported 0.45 S 0.67 SW 5.14 SE No 0.000 No Precipitation 12/05/2018 08:37 AM 12/05/2018 08:42 AM 0.000 0.000 0.000 0.000 0.000 Not Reported Not Reported
12/06/2018 04:08 PM 26.06 25.70 24.80 27.68 25.34 94.0 Not Reported 1.12 NW 0.45 N 4.03 NW No 0.000 No Precipitation 12/05/2018 08:37 AM 12/05/2018 08:42 AM 0.000 0.000 0.000 0.000 0.000 Not Reported Not Reported
12/06/2018 04:23 PM 26.24 25.70 24.80 27.50 25.34 94.0 Not Reported 0.22 NW 0.22 NW 2.24 N No 0.000 No Precipitation 12/05/2018 08:37 AM 12/05/2018 08:42 AM 0.000 0.000 0.000 0.000 0.000 Not Reported Not Reported
12/06/2018 04:38 PM 26.06 25.52 24.62 27.32 25.34 94.0 Not Reported 1.12 SE 0.89 NE 4.47 NE No 0.000 No Precipitation 12/05/2018 08:37 AM 12/05/2018 08:42 AM 0.000 0.000 0.000 0.000 0.000 Not Reported Not Reported
12/06/2018 04:53 PM 25.88 25.34 24.44 27.14 25.34 94.0 Not Reported 0.67 NE 1.57 SE 4.92 NE No 0.000 No Precipitation 12/05/2018 08:37 AM 12/05/2018 08:42 AM 0.000 0.000 0.000 0.000 0.000 Not Reported Not Reported
12/06/2018 05:08 PM 25.88 25.52 24.62 27.14 25.34 94.0 Not Reported 1.12 E 1.12 E 2.68 NE No 0.000 No Precipitation 12/05/2018 08:37 AM 12/05/2018 08:42 AM 0.000 0.000 0.000 0.000 0.000 Not Reported Not Reported
12/06/2018 05:23 PM 25.88 25.52 24.62 27.14 25.34 94.0 Not Reported 0.89 SW 2.91 NW 2.24 S No 0.000 No Precipitation 12/05/2018 08:37 AM 12/05/2018 08:42 AM 0.000 0.000 0.000 0.000 0.000 Not Reported Not Reported
12/06/2018 05:38 PM 25.70 25.34 24.44 27.14 25.34 94.0 Not Reported 0.89 NE 0.45 SE 3.13 E No 0.000 No Precipitation 12/05/2018 08:37 AM 12/05/2018 08:42 AM 0.000 0.000 0.000 0.000 0.000 Not Reported Not Reported
12/06/2018 05:53 PM 25.70 25.34 24.44 27.14 25.34 94.0 Not Reported 1.57 E 1.79 E 6.04 NE No 0.000 No Precipitation 12/05/2018 08:37 AM 12/05/2018 08:42 AM 0.000 0.000 0.000 0.000 0.000 Not Reported Not Reported
12/06/2018 06:08 PM 25.52 25.16 24.26 27.14 25.34 94.0 Not Reported 3.13 NE 1.57 NE 4.03 SE No 0.000 No Precipitation 12/05/2018 08:37 AM 12/05/2018 08:42 AM 0.000 0.000 0.000 0.000 0.000 Not Reported Not Reported
12/06/2018 06:23 PM 25.70 25.34 24.44 27.14 25.34 95.0 Not Reported 0.45 N 0.45 SE 3.58 SE No 0.000 No Precipitation 12/05/2018 08:37 AM 12/05/2018 08:42 AM 0.000 0.000 0.000 0.000 0.000 Not Reported Not Reported
12/06/2018 06:38 PM 25.52 25.16 24.26 27.14 25.34 95.0 Not Reported 1.57 S 0.67 SW 2.24 NE No 0.000 No Precipitation 12/05/2018 08:37 AM 12/05/2018 08:42 AM 0.000 0.000 0.000 0.000 0.000 Not Reported Not Reported
12/06/2018 06:53 PM 25.52 25.16 24.26 27.14 25.34 94.0 Not Reported 0.89 SE 2.01 SE 2.68 W No 0.000 No Precipitation 12/05/2018 08:37 AM 12/05/2018 08:42 AM 0.000 0.000 0.000 0.000 0.000 Not Reported Not Reported
12/06/2018 07:08 PM 25.52 25.16 24.44 27.14 25.34 95.0 Not Reported 0.45 SW 1.34 S 2.24 NE No 0.000 No Precipitation 12/05/2018 08:37 AM 12/05/2018 08:42 AM 0.000 0.000 0.000 0.000 0.000 Not Reported Not Reported
12/06/2018 07:23 PM 25.52 25.16 24.44 27.14 25.34 95.0 Not Reported 0.89 NW 0.45 NW 3.36 E No 0.000 No Precipitation 12/05/2018 08:37 AM 12/05/2018 08:42 AM 0.000 0.000 0.000 0.000 0.000 Not Reported Not Reported
12/06/2018 07:38 PM 25.52 25.16 24.44 27.14 25.34 95.0 Not Reported 3.58 SE 2.91 SW 2.01 W No 0.000 No Precipitation 12/05/2018 08:37 AM 12/05/2018 08:42 AM 0.000 0.000 0.000 0.000 0.000 Not Reported Not Reported
12/06/2018 07:53 PM 25.34 24.98 24.08 27.14 25.16 95.0 Not Reported 2.01 S 1.12 W 3.80 NE No 0.000 No Precipitation 12/05/2018 08:37 AM 12/05/2018 08:42 AM 0.000 0.000 0.000 0.000 0.000 Not Reported Not Reported
12/06/2018 08:08 PM 25.34 24.98 24.08 27.14 25.16 95.0 Not Reported 2.01 E 2.68 SE 4.03 SE No 0.000 No Precipitation 12/05/2018 08:37 AM 12/05/2018 08:42 AM 0.000 0.000 0.000 0.000 0.000 Not Reported Not Reported
12/06/2018 08:23 PM 25.34 24.98 24.26 27.14 25.16 95.0 Not Reported 0.22 SE 2.01 S 4.03 SE No 0.000 No Precipitation 12/05/2018 08:37 AM 12/05/2018 08:42 AM 0.000 0.000 0.000 0.000 0.000 Not Reported Not Reported
12/06/2018 08:38 PM 25.34 24.98 24.26 27.14 25.16 95.0 Not Reported 1.12 SE 0.67 NE 3.13 E No 0.000 No Precipitation 12/05/2018 08:37 AM 12/05/2018 08:42 AM 0.000 0.000 0.000 0.000 0.000 Not Reported Not Reported
12/06/2018 08:53 PM 25.34 24.98 24.44 27.14 25.16 95.0 Not Reported 1.34 E 1.34 SE 4.47 S No 0.000 No Precipitation 12/05/2018 08:37 AM 12/05/2018 08:42 AM 0.000 0.000 0.000 0.000 0.000 Not Reported Not Reported
12/06/2018 09:08 PM 25.16 24.80 24.26 27.14 25.16 96.0 Not Reported 1.57 E 1.34 SE 4.03 E No 0.000 No Precipitation 12/05/2018 08:37 AM 12/05/2018 08:42 AM 0.000 0.000 0.000 0.000 0.000 Not Reported Not Reported
12/06/2018 09:23 PM 25.34 24.98 24.44 27.14 25.16 96.0 Not Reported 1.57 E 0.00 S 4.03 E No 0.000 No Precipitation 12/05/2018 08:37 AM 12/05/2018 08:42 AM 0.000 0.000 0.000 0.000 0.000 Not Reported Not Reported
12/06/2018 09:38 PM 25.34 25.16 24.44 27.14 25.16 96.0 Not Reported 1.12 S 0.00 NE 2.01 E No 0.000 No Precipitation 12/05/2018 08:37 AM 12/05/2018 08:42 AM 0.000 0.000 0.000 0.000 0.000 Not Reported Not Reported
12/06/2018 09:53 PM 25.34 24.98 24.44 27.14 25.16 96.0 Not Reported 1.34 N 2.91 SE 2.01 N No 0.000 No Precipitation 12/05/2018 08:37 AM 12/05/2018 08:42 AM 0.000 0.000 0.000 0.000 0.000 Not Reported Not Reported
12/06/2018 10:08 PM 25.34 24.98 24.26 27.14 25.16 95.0 Not Reported 0.89 NE 0.00 NE 2.91 SE No 0.000 No Precipitation 12/05/2018 08:37 AM 12/05/2018 08:42 AM 0.000 0.000 0.000 0.000 0.000 Not Reported Not Reported
12/06/2018 10:23 PM 25.34 24.98 24.44 27.14 25.16 96.0 Not Reported 0.67 SE 0.00 S 2.46 NE No 0.000 No Precipitation 12/05/2018 08:37 AM 12/05/2018 08:42 AM 0.000 0.000 0.000 0.000 0.000 Not Reported Not Reported
12/06/2018 10:38 PM 25.34 25.16 24.62 27.14 25.16 96.0 Not Reported 1.12 SE 0.89 NE 2.01 E No 0.000 No Precipitation 12/05/2018 08:37 AM 12/05/2018 08:42 AM 0.000 0.000 0.000 0.000 0.000 Not Reported Not Reported
12/06/2018 10:53 PM 25.34 24.98 24.44 27.14 25.16 96.0 Not Reported 0.45 SE 0.67 N 2.91 N No 0.000 No Precipitation 12/05/2018 08:37 AM 12/05/2018 08:42 AM 0.000 0.000 0.000 0.000 0.000 Not Reported Not Reported
12/06/2018 11:08 PM 25.34 24.98 24.44 27.14 25.16 96.0 Not Reported 0.00 SE 0.00 NW 2.01 E No 0.000 No Precipitation 12/05/2018 08:37 AM 12/05/2018 08:42 AM 0.000 0.000 0.000 0.000 0.000 Not Reported Not Reported
12/06/2018 11:23 PM 25.34 25.16 24.62 27.14 25.16 96.0 Not Reported 0.22 SE 0.67 NE 2.01 S No 0.000 No Precipitation 12/05/2018 08:37 AM 12/05/2018 08:42 AM 0.000 0.000 0.000 0.000 0.000 Not Reported Not Reported
12/06/2018 11:38 PM 25.34 25.16 24.62 27.14 25.16 96.0 Not Reported 2.01 E 2.24 E 3.80 N No 0.000 No Precipitation 12/05/2018 08:37 AM 12/05/2018 08:42 AM 0.000 0.000 0.000 0.000 0.000 Not Reported Not Reported
12/06/2018 11:53 PM 25.34 24.98 24.44 27.14 25.16 96.0 Not Reported 1.12 W 0.67 SW 2.01 SW No 0.000 No Precipitation 12/05/2018 08:37 AM 12/05/2018 08:42 AM 0.000 0.000 0.000 0.000 0.000 Not Reported Not Reported